New Iberia, LA

7:55 AM CDT on September 24, 2017 (GMT -0500)
Acadiana Regional

Weather History for KARA - June, 2013

Change the Weather History Date:

Thursday, June 27, 2013

  Actual Average Record
Temperature  
Mean Temperature 86 °F 82 °F  
Max Temperature 96 °F 91 °F 97 °F (1952)
Min Temperature 76 °F 73 °F 61 °F (1974)
Degree Days  
Heating Degree Days 0 0  
Month to date heating degree days 0 0  
Since 1 June heating degree days 0 0  
Since 1 July heating degree days 1150 1409  
Cooling Degree Days 21 17  
Month to date cooling degree days 503 421  
Year to date cooling degree days 1084 991  
Since 1 June cooling degree days 503 421  
Growing Degree Days 35 (Base 50)    
Moisture  
Dew Point 74 °F    
Average Humidity 70    
Maximum Humidity 94    
Minimum Humidity 46    
Precipitation  
Precipitation 0.00 in 0.20 in 2.04 in (1957)
Month to date precipitation 6.13 6.30  
Year to date precipitation 41.50 28.53  
Sea Level Pressure  
Sea Level Pressure 29.99 in    
Wind  
Wind Speed 4 mph (WNW)    
Max Wind Speed 10 mph    
Max Gust Speed 15 mph    
Visibility 10 miles    
Events      
T = Trace of Precipitation, MM = Missing Value Source: NWS Daily Summary

Daily Weather History Graph

Daily Weather History Graph

Search for Another Location

Airport or City:

Trip Planner

Search our weather history database for the weather conditions in past years. The results will help you decide how hot, cold, wet, or windy it might be!

Date:

Astronomy

Jun. 27, 2013 Rise Set
Actual Time 6:08 AM CDT 8:12 PM CDT
Civil Twilight 5:41 AM CDT 8:40 PM CDT
Nautical Twilight 5:07 AM CDT 9:13 PM CDT
Astronomical Twilight 4:32 AM CDT 9:49 PM CDT
Moon 11:34 PM CDT (6/27) 10:48 AM CDT (6/27)
Length of Visible Light 14h 58m
Length of Day
14h 04m
Waning Gibbous, 76% of the Moon is Illuminated
Jun 27
Waning Gibbous
Jun 29
Last Quarter
Jul 8
New
Jul 15
First Quarter
Jul 22
Full

Hourly Weather History & Observations

Time (CDT) Temp. Heat Index Dew Point Humidity Pressure Visibility Wind Dir Wind Speed Gust Speed Precip Events Conditions
12:53 AM 78.1 °F - 73.9 °F 87% 30.01 in 10.0 mi Calm Calm - N/A   Clear
1:53 AM 77.0 °F - 73.9 °F 90% 30.01 in 9.0 mi Calm Calm - N/A   Clear
2:53 AM 77.0 °F - 73.9 °F 90% 30.01 in 10.0 mi Calm Calm - N/A   Clear
3:53 AM 75.9 °F - 73.0 °F 91% 30.00 in 10.0 mi Calm Calm - N/A   Clear
4:53 AM 78.1 °F - 73.9 °F 87% 30.01 in 10.0 mi Calm Calm - N/A   Partly Cloudy
5:53 AM 78.1 °F - 73.0 °F 84% 30.03 in 10.0 mi NNE 4.6 mph - N/A   Partly Cloudy
6:53 AM 79.0 °F - 75.0 °F 88% 30.03 in 10.0 mi Calm Calm - N/A   Partly Cloudy
7:53 AM 81.0 °F 86.7 °F 75.0 °F 82% 30.03 in 10.0 mi NNW 3.5 mph - N/A   Clear
8:53 AM 86.0 °F 96.0 °F 75.9 °F 72% 30.03 in 10.0 mi NW 4.6 mph - N/A   Clear
9:53 AM 88.0 °F 98.5 °F 75.9 °F 67% 30.04 in 10.0 mi West 6.9 mph - N/A   Partly Cloudy
10:53 AM 90.0 °F 101.3 °F 75.9 °F 63% 30.03 in 10.0 mi WNW 9.2 mph - N/A   Scattered Clouds
11:53 AM 90.0 °F 101.3 °F 75.9 °F 63% 30.02 in 10.0 mi Variable 5.8 mph - N/A   Scattered Clouds
12:53 PM 91.9 °F 103.2 °F 75.0 °F 58% 30.01 in 10.0 mi West 6.9 mph - N/A   Partly Cloudy
1:53 PM 91.9 °F 101.3 °F 73.9 °F 55% 29.99 in 10.0 mi West 5.8 mph - N/A   Partly Cloudy
2:53 PM 93.9 °F 103.4 °F 73.0 °F 51% 29.98 in 10.0 mi WNW 8.1 mph - N/A   Clear
3:53 PM 95.0 °F 102.5 °F 71.1 °F 46% 29.96 in 10.0 mi WSW 3.5 mph - N/A   Partly Cloudy
4:53 PM 93.9 °F 100.8 °F 71.1 °F 47% 29.96 in 10.0 mi NNW 3.5 mph - N/A   Partly Cloudy
5:53 PM 93.9 °F 100.8 °F 71.1 °F 47% 29.94 in 10.0 mi WNW 3.5 mph - N/A   Scattered Clouds
6:53 PM 93.0 °F 100.7 °F 72.0 °F 50% 29.94 in 10.0 mi WNW 3.5 mph - N/A   Clear
7:53 PM 90.0 °F 99.0 °F 73.9 °F 59% 29.94 in 10.0 mi West 3.5 mph - N/A   Clear
8:53 PM 86.0 °F 96.9 °F 77.0 °F 74% 29.94 in 10.0 mi Calm Calm - N/A   Clear
9:53 PM 82.9 °F 90.8 °F 75.9 °F 79% 29.95 in 10.0 mi SW 4.6 mph - N/A   Clear
10:53 PM 81.0 °F 87.3 °F 75.9 °F 85% 29.96 in 10.0 mi South 3.5 mph - N/A   Clear
11:53 PM 81.0 °F 87.3 °F 75.9 °F 85% 29.97 in 10.0 mi Calm Calm - N/A   Clear